Location: Auckland
(36.8670°S, 174.7670°E)
Time: 13:21:29
(UTC+12:00)

A-11 Canister half - All Passes

Search period start: 23 July 2019 00:00
Search period end: 02 August 2019 00:00
Orbit: 1514 x 1685 km, 47.2° (Epoch: 22 July)

Date Brightness Start Highest point End Pass type
(mag) Time Alt. Az. Time Alt. Az. Time Alt. Az.
23 Jul - 12:40:17 10° NNW 12:48:39 37° NE 12:56:53 10° ESE daylight
23 Jul - 14:43:35 10° WNW 14:53:00 79° SSW 15:02:21 10° ESE daylight
23 Jul - 16:50:06 10° W 16:58:57 46° S 17:07:51 10° ESE daylight
23 Jul - 18:56:21 10° WSW 19:05:26 54° SSE 19:14:39 10° E visible
23 Jul - 21:01:26 10° WSW 21:10:44 71° NW 21:20:14 10° NE visible
23 Jul - 23:08:22 10° W 23:14:29 19° NW 23:20:43 10° NNW visible
24 Jul - 12:17:36 10° N 12:25:48 34° NE 12:33:52 10° ESE daylight
24 Jul - 14:20:38 10° WNW 14:30:05 82° SSW 14:39:26 10° ESE daylight
24 Jul - 16:27:04 10° W 16:35:57 46° S 16:44:51 10° ESE daylight
24 Jul - 18:33:25 10° WSW 18:42:28 52° SSE 18:51:37 10° E visible
24 Jul - 20:38:32 10° WSW 20:47:50 75° NW 20:57:21 10° NE visible
24 Jul - 22:45:09 10° W 22:51:39 21° NW 22:58:17 10° N visible
25 Jul - 11:54:56 10° N 12:02:58 32° NE 12:10:50 10° ESE daylight
25 Jul - 13:57:41 10° WNW 14:07:09 86° SW 14:16:31 10° ESE daylight
25 Jul - 16:04:02 10° W 16:12:58 47° S 16:21:52 10° ESE daylight
25 Jul - 18:10:28 10° WSW 18:19:28 51° SSE 18:28:34 10° E visible
25 Jul - 20:15:37 10° WSW 20:24:56 79° NW 20:34:27 10° NE visible
25 Jul - 22:22:00 10° W 22:28:49 23° NW 22:35:47 10° N visible
26 Jul - 11:32:19 10° N 11:40:08 29° NE 11:47:48 10° ESE daylight
26 Jul - 13:34:44 10° NW 13:44:15 89° SW 13:53:37 10° ESE daylight
26 Jul - 15:41:00 10° W 15:49:58 48° SSW 15:58:54 10° ESE daylight
26 Jul - 17:47:30 10° WSW 17:56:30 50° SSE 18:05:32 10° E visible
26 Jul - 19:52:42 10° WSW 20:02:02 83° NW 20:11:33 10° NE visible
26 Jul - 21:58:52 10° WSW 22:06:00 25° NW 22:13:15 10° N visible
27 Jul - 11:09:42 10° N 11:17:17 27° NE 11:24:43 10° ESE daylight
27 Jul - 13:11:49 10° NW 13:21:20 87° NE 13:30:42 10° ESE daylight
27 Jul - 15:17:58 10° W 15:26:58 49° SSW 15:35:56 10° ESE daylight
27 Jul - 17:24:33 10° WSW 17:33:30 49° SSE 17:42:30 10° E daylight
27 Jul - 19:29:47 10° WSW 19:39:07 87° NW 19:48:38 10° NE visible
27 Jul - 21:35:47 10° WSW 21:43:09 27° NW 21:50:41 10° N visible
28 Jul - 10:47:07 10° N 10:54:27 25° NE 11:01:38 10° ESE daylight
28 Jul - 12:48:53 10° NW 12:58:26 83° NE 13:07:47 10° ESE daylight
28 Jul - 14:54:55 10° W 15:03:59 50° SSW 15:12:58 10° ESE daylight
28 Jul - 17:01:35 10° WSW 17:10:30 48° SSE 17:19:28 10° E daylight
28 Jul - 19:06:52 10° WSW 19:16:13 90° SSE 19:25:42 10° NE visible
28 Jul - 21:12:43 10° WSW 21:20:20 29° NW 21:28:05 10° N visible
29 Jul - 10:24:35 10° N 10:31:37 23° NE 10:38:31 10° E daylight
29 Jul - 12:25:59 10° NW 12:35:32 79° NE 12:44:52 10° ESE daylight
29 Jul - 14:31:53 10° W 14:41:00 51° SSW 14:50:01 10° ESE daylight
29 Jul - 16:38:37 10° WSW 16:47:32 47° S 16:56:26 10° E daylight
29 Jul - 18:43:57 10° WSW 18:53:19 86° SSE 19:02:46 10° ENE visible
29 Jul - 20:49:40 10° WSW 20:57:29 31° NW 21:05:27 10° N visible
30 Jul - 10:02:05 10° N 10:08:47 21° NE 10:15:22 10° E daylight
30 Jul - 12:03:05 10° NW 12:12:38 75° NE 12:21:57 10° ESE daylight
30 Jul - 14:08:51 10° W 14:18:01 52° SSW 14:27:04 10° ESE daylight
30 Jul - 16:15:37 10° WSW 16:24:32 46° S 16:33:24 10° E daylight
30 Jul - 18:21:03 10° WSW 18:30:24 82° SSE 18:39:49 10° ENE visible
30 Jul - 20:26:38 10° WSW 20:34:39 34° NW 20:42:48 10° N visible
31 Jul - 09:39:38 10° NNE 09:45:57 20° NE 09:52:10 10° E daylight
31 Jul - 11:40:11 10° NW 11:49:44 72° NE 11:59:02 10° ESE daylight
31 Jul - 13:45:49 10° W 13:55:03 54° SSW 14:04:08 10° ESE daylight
31 Jul - 15:52:38 10° WSW 16:01:32 46° S 16:10:23 10° E daylight
31 Jul - 17:58:07 10° WSW 18:07:28 79° SSE 18:16:52 10° ENE visible
31 Jul - 20:03:37 10° WSW 20:11:48 36° NW 20:20:07 10° NNE visible
01 Aug - 09:17:14 10° NNE 09:23:07 18° NE 09:28:55 10° E daylight
01 Aug - 11:17:19 10° NW 11:26:50 68° NE 11:36:07 10° ESE daylight
01 Aug - 13:22:46 10° W 13:32:04 55° SSW 13:41:12 10° ESE daylight
01 Aug - 15:29:38 10° WSW 15:38:32 45° S 15:47:22 10° ESE daylight
01 Aug - 17:35:12 10° WSW 17:44:33 76° SSE 17:53:54 10° ENE daylight
01 Aug - 19:40:37 10° WSW 19:48:58 39° NW 19:57:26 10° NNE visible
